[[{"header":{"parameterUnit":"m.s-1","parameterCategory":1,"la1":30.2991,"la2":30.254,"lo1":-89.0895,"lo2":-89.0444,"dy":0.0017,"dx":0.0017,"nx":28,"ny":28,"refTime":"2024-05-18T09:00:00:Z","depth":0,"parameterNumber":2,"parameterNumberName":"U-component_of_WINDS"},"data":[0,0,0,0,0,0,0,0,0,0,0,0,0,0,0,0,0,0,0,0,0,0,0,0,0,0,0,0,0,0,0,0,0,0,0,0,0,0,0,0,0,0,0,0,0,0,0,0,0,0,0,0,0,0,0,0,0,0,1.3886,1.3886,0,1.3934,1.3935,1.3935,1.3881,1.3879,1.3877,1.3875,1.393,1.3933,1.3936,0,0,0,0,0,0,0,0,0,0,0,0,0,1.3751,1.3753,1.3886,1.3886,1.3887,1.3934,1.3935,1.3935,1.3881,1.3879,1.3876,1.3874,1.3929,1.3933,1.3937,0,0,0,0,0,0,0,0,0,0,0,0,0,1.3805,1.3754,1.3886,1.3866,1.3864,1.3934,1.3935,1.3936,1.3882,1.3879,1.3876,1.3873,1.3927,1.3932,1.3937,1.4031,0,0,1.3953,1.3955,0,0,0,0,0,0,0,0,1.3802,1.381,1.3868,1.3867,1.3866,1.3898,1.3907,1.3968,1.3883,1.3875,1.3875,1.3871,1.3922,1.3928,1.3944,1.4034,1.4036,1.3953,1.3956,1.3959,1.396,0,0,0,0,0,0,0,1.3799,1.3808,1.3905,1.3869,1.3868,1.3855,1.386,1.3918,1.3916,1.3876,1.3872,1.3878,1.3921,1.3939,1.3944,1.4037,1.3953,1.3958,1.3961,1.3963,1.4204,1.4207,0,0,0,0,0,0,1.3796,1.3805,1.3904,1.3907,1.3825,1.386,1.3865,1.3891,1.3915,1.3915,1.3881,1.3875,1.3932,1.3939,1.3946,1.4056,1.3959,1.3963,1.3966,1.42,1.4204,1.4208,0,0,0,0,0,0,1.3794,1.3806,1.3902,1.3855,1.3866,1.3866,1.3895,1.3894,1.3911,1.3918,1.3918,1.3899,1.3929,1.3939,1.4009,1.4057,1.3966,1.397,1.4196,1.4202,1.4206,1.4276,0,0,0,0,0,0,1.379,1.3805,1.384,1.3856,1.3869,1.3963,1.3898,1.3897,1.3919,1.3913,1.3936,1.3937,1.3928,1.4002,1.4014,1.4062,1.3974,1.4192,1.4199,1.4205,1.427,1.4283,1.4295,0,0,0,0,0,1.3785,1.386,1.3842,1.3854,1.3912,1.3966,1.3973,1.396,1.3923,1.3959,1.3963,1.3936,1.405,1.401,1.4023,1.4073,1.4189,1.4197,1.4204,1.4264,1.4281,1.4294,0,0,0,0,0,0,1.3852,1.3861,1.3842,1.3923,1.3944,1.3957,1.4001,1.3978,1.4011,1.4004,1.3988,1.3993,1.4068,1.4078,1.4033,1.4164,1.4114,1.4124,1.4155,1.417,1.4182,1.4178,1.3979,0,0,0,0,0,1.3875,1.3917,1.3924,1.3995,1.4006,1.4002,1.4025,1.4012,1.4034,1.4043,1.4053,1.4076,1.4117,1.4144,1.4182,1.4271,1.4275,1.4312,1.4324,1.4335,1.4344,1.439,1.4406,1.4233,1.4233,1.4233,0,0,1.3926,1.3936,1.3964,1.4008,1.4023,1.4067,1.401,1.4059,1.4092,1.4051,1.4117,1.4125,1.415,1.4229,1.4265,1.424,1.4392,1.4344,1.4352,1.4356,1.4399,1.4416,1.443,1.4238,1.4237,1.4236,0,0,1.4039,1.4051,1.411,1.4125,1.4147,1.4143,1.4158,1.4174,1.4176,1.4242,1.4211,1.4251,1.4322,1.434,1.4359,1.4477,1.4452,1.449,1.4555,1.46,1.4613,1.4625,1.4666,1.4681,1.4499,1.4499,1.45,0,1.4099,1.4163,1.4145,1.4195,1.4216,1.4178,1.4238,1.4254,1.4288,1.4304,1.4275,1.4361,1.4376,1.4458,1.4486,1.4503,1.4519,1.4487,1.4612,1.4624,1.4635,1.4674,1.469,1.4504,1.4503,1.4503,1.4502,0,1.4235,1.4279,1.4325,1.4355,1.4381,1.4437,1.4427,1.4456,1.4441,1.444,1.4507,1.4522,1.4562,1.4581,1.4568,1.4661,1.4644,1.4615,1.4563,1.4656,1.4692,1.4707,1.451,1.4508,1.4507,1.4506,0,0,1.4392,1.441,1.4427,1.4439,1.446,1.4495,1.4548,1.4584,1.4608,1.4633,1.4677,1.4737,1.4708,1.473,1.4719,1.4758,1.4849,1.4723,1.4723,1.4745,1.495,1.4972,1.499,1.4832,1.4835,1.4837,1.4948,0,1.4505,1.4595,1.4579,1.4668,1.4708,1.4672,1.4719,1.4737,1.4737,1.4773,1.4774,1.4816,1.4776,1.4788,1.4826,1.483,1.489,1.4822,1.4874,1.4876,1.4868,1.5009,1.5032,1.5136,1.4962,1.4964,1.4966,0,1.4648,1.4675,1.4766,1.4777,1.4794,1.4836,1.4867,1.4901,1.492,1.4918,1.4941,1.4921,1.4975,1.4923,1.4997,1.4951,1.4972,1.4977,1.4981,1.4985,1.4926,1.5016,1.5169,1.5184,1.4988,1.4987,1.4985,0,1.4752,1.4811,1.4873,1.4885,1.49,1.493,1.4939,1.4955,1.4977,1.5005,1.5019,1.5053,1.5072,1.51,1.5091,1.5054,1.5166,1.5114,1.5166,1.5166,1.5191,1.519,1.5349,1.5206,1.5206,1.5206,1.5205,0,1.4879,1.4936,1.4919,1.4957,1.502,1.5002,1.5065,1.5069,1.5083,1.5122,1.5094,1.5131,1.5117,1.5154,1.5147,1.5209,1.5218,1.5218,1.5215,1.522,1.522,1.5233,1.5225,1.521,1.5209,1.5208,1.5207,0,1.5005,1.4996,1.5061,1.5069,1.5073,1.5118,1.5126,1.5162,1.516,1.5209,1.522,1.5217,1.5258,1.5251,1.5299,1.5294,1.537,1.536,1.5363,1.536,1.5412,1.5407,1.5584,1.5606,1.5451,1.5452,1.5453,0,1.5086,1.5129,1.5141,1.5163,1.5173,1.521,1.5232,1.5215,1.5239,1.5263,1.5296,1.5334,1.5364,1.5432,1.5435,1.547,1.546,1.5519,1.5465,1.5467,1.5459,1.5456,1.546,1.553,1.5532,1.5533,1.5535,0,1.523,1.5223,1.5254,1.5283,1.5309,1.5332,1.5352,1.5373,1.5358,1.5387,1.5427,1.545,1.5496,1.5534,1.5566,1.5576,1.5553,1.5552,1.5565,1.557,1.557,1.5569,1.5391,1.5548,1.5546,1.5545,1.5545,1.5544,1.5336,1.5371,1.5384,1.5419,1.5432,1.5451,1.5484,1.5485,1.5517,1.5552,1.5541,1.5587,1.5604,1.5645,1.5658,1.5694,1.5672,1.5693,1.5698,1.5703,1.5708,1.5564,1.5701,1.57,1.57,1.5699,1.5699,0,1.5477,1.5483,1.5515,1.5543,1.557,1.5544,1.5564,1.559,1.563,1.5647,1.5675,1.5721,1.5758,1.5763,1.5798,1.5826,1.5816,1.5835,1.5833,1.5835,1.5727,1.571,1.5842,1.5842,1.5842,1.5842,1.5842,1.5842,1.5554,1.5611,1.5605,1.5669,1.5675,1.5717,1.5731,1.5749,1.5762,1.5814,1.5843,1.5845,1.5857,1.5892,1.5924,1.5925,1.5939,1.5962,1.5959,1.5857,1.5843,1.5829,1.5814,1.5965,1.5966,1.6064,1.6065,1.6065]},{"header":{"parameterUnit":"m.s-1","parameterCategory":1,"la1":30.2991,"la2":30.254,"lo1":-89.0895,"lo2":-89.0444,"dy":0.0017,"dx":0.0017,"nx":28,"ny":28,"refTime":"2024-05-18T09:00:00:Z","depth":0,"parameterNumber":3,"parameterNumberName":"V-component_of_WINDS"},"data":[0,0,0,0,0,0,0,0,0,0,0,0,0,0,0,0,0,0,0,0,0,0,0,0,0,0,0,0,0,0,0,0,0,0,0,0,0,0,0,0,0,0,0,0,0,0,0,0,0,0,0,0,0,0,0,0,0,0,3.446,3.4461,0,3.4512,3.4513,3.4513,3.4441,3.4439,3.4436,3.4434,3.4484,3.4488,3.4492,0,0,0,0,0,0,0,0,0,0,0,0,0,3.4293,3.4296,3.446,3.4461,3.4461,3.4512,3.4513,3.4513,3.4442,3.4439,3.4436,3.4433,3.4483,3.4488,3.4492,0,0,0,0,0,0,0,0,0,0,0,0,0,3.4357,3.4297,3.446,3.4432,3.443,3.4512,3.4513,3.4514,3.4443,3.4439,3.4435,3.4431,3.4482,3.4487,3.4493,3.4604,0,0,3.451,3.4512,0,0,0,0,0,0,0,0,3.4354,3.4363,3.4435,3.4434,3.4432,3.4466,3.4472,3.4544,3.4444,3.4438,3.4434,3.4429,3.4481,3.4487,3.4505,3.4606,3.4609,3.451,3.4514,3.4516,3.4518,0,0,0,0,0,0,0,3.4349,3.4361,3.448,3.4436,3.4434,3.4415,3.442,3.4485,3.448,3.4438,3.4433,3.444,3.448,3.45,3.4506,3.4609,3.451,3.4515,3.4519,3.4521,3.4801,3.4805,0,0,0,0,0,0,3.4349,3.4357,3.4479,3.4482,3.4382,3.4421,3.4426,3.4459,3.4479,3.4479,3.4443,3.4437,3.4492,3.4499,3.4507,3.4637,3.4516,3.4521,3.4525,3.4797,3.4802,3.4806,0,0,0,0,0,0,3.4345,3.436,3.4477,3.4418,3.4432,3.4428,3.4465,3.4462,3.4482,3.4484,3.4482,3.4465,3.4489,3.4499,3.458,3.4638,3.4524,3.4529,3.4792,3.4798,3.4804,3.4899,0,0,0,0,0,0,3.4341,3.4359,3.4403,3.442,3.4435,3.4551,3.4469,3.4466,3.4492,3.4484,3.4504,3.4503,3.4487,3.4572,3.4585,3.4643,3.4533,3.4787,3.4795,3.4802,3.4891,3.4908,3.4922,0,0,0,0,0,3.4335,3.4428,3.4406,3.4421,3.449,3.4554,3.4563,3.4543,3.4497,3.454,3.454,3.4502,3.4629,3.4581,3.4595,3.4656,3.4783,3.4793,3.4801,3.4884,3.4904,3.4922,0,0,0,0,0,0,3.4419,3.443,3.4406,3.4507,3.453,3.4542,3.4596,3.4566,3.4603,3.4593,3.4566,3.4571,3.4657,3.4664,3.461,3.4763,3.4698,3.4711,3.4756,3.4775,3.4791,3.4787,3.4538,0,0,0,0,0,3.4449,3.4501,3.4508,3.4597,3.4609,3.4601,3.4628,3.4611,3.4633,3.4643,3.4649,3.4671,3.4715,3.4745,3.4787,3.4891,3.4893,3.4939,3.4955,3.4968,3.4979,3.5032,3.5052,3.4836,3.4836,3.4836,0,0,3.4512,3.4524,3.4559,3.4614,3.463,3.4683,3.461,3.467,3.4708,3.4651,3.4728,3.4733,3.4756,3.4848,3.4889,3.4857,3.5039,3.4979,3.499,3.4994,3.5044,3.5064,3.5082,3.4843,3.4841,3.484,0,0,3.4654,3.467,3.4744,3.4761,3.4786,3.4779,3.4797,3.4812,3.4814,3.489,3.4848,3.4892,3.497,3.4987,3.5006,3.515,3.5116,3.5164,3.5247,3.5299,3.5316,3.5331,3.5381,3.54,3.5175,3.5175,3.5176,0,3.4729,3.4809,3.4786,3.4849,3.4872,3.4823,3.4896,3.4914,3.495,3.4967,3.493,3.5025,3.5037,3.5131,3.5166,3.5184,3.5202,3.5163,3.5315,3.533,3.5344,3.5391,3.5411,3.5181,3.518,3.518,3.5179,0,3.4899,3.4955,3.5012,3.5049,3.5078,3.5147,3.5132,3.5164,3.5143,3.5139,3.5216,3.5228,3.5269,3.529,3.5271,3.5381,3.536,3.532,3.5254,3.537,3.5415,3.5433,3.5189,3.5187,3.5185,3.5184,0,0,3.5099,3.5119,3.514,3.5155,3.5177,3.5219,3.5283,3.5324,3.5352,3.5377,3.5429,3.5494,3.5456,3.5478,3.5459,3.5505,3.5616,3.5458,3.5458,3.5487,3.5737,3.5768,3.579,3.5593,3.5596,3.5599,3.5735,0,3.524,3.5352,3.5331,3.544,3.5489,3.5441,3.5496,3.5514,3.5511,3.5551,3.5547,3.5594,3.5541,3.5553,3.5596,3.5594,3.5666,3.5583,3.564,3.5642,3.5637,3.5813,3.5846,3.5975,3.5752,3.5755,3.5757,0,3.5421,3.5453,3.5566,3.5578,3.5598,3.5648,3.5682,3.5722,3.574,3.5734,3.5757,3.5729,3.579,3.5722,3.5805,3.5749,3.577,3.5772,3.5777,3.5782,3.5708,3.5823,3.6015,3.6034,3.5785,3.5782,3.5781,0,3.5553,3.5625,3.5701,3.5716,3.5731,3.5767,3.5775,3.579,3.5814,3.5843,3.5859,3.5895,3.5914,3.5942,3.5923,3.5876,3.6008,3.594,3.6004,3.6005,3.6035,3.6034,3.6234,3.6049,3.6048,3.6048,3.6048,0,3.5713,3.5785,3.5761,3.5808,3.5885,3.5859,3.5936,3.5937,3.595,3.5995,3.5955,3.5998,3.597,3.601,3.5995,3.6065,3.6074,3.607,3.6065,3.6074,3.6075,3.6088,3.6079,3.6053,3.6052,3.6051,3.605,0,3.5876,3.5863,3.5943,3.595,3.5953,3.601,3.6015,3.6058,3.605,3.6108,3.612,3.6108,3.6153,3.6136,3.6184,3.6174,3.6263,3.6246,3.6257,3.6253,3.6319,3.6313,3.6535,3.6562,3.6359,3.6361,3.6363,0,3.5979,3.6033,3.6045,3.6073,3.6083,3.6128,3.6153,3.6128,3.6155,3.6178,3.6218,3.6259,3.629,3.6363,3.6359,3.6394,3.6378,3.6453,3.6383,3.639,3.6379,3.6376,3.6381,3.6468,3.647,3.6472,3.6474,0,3.6164,3.6154,3.6192,3.6227,3.6258,3.6284,3.6307,3.6331,3.6306,3.6338,3.6384,3.6408,3.6456,3.6497,3.6528,3.6534,3.65,3.6495,3.6512,3.6522,3.6526,3.6525,3.6296,3.6491,3.6489,3.6488,3.6487,3.6486,3.63,3.6344,3.6359,3.6402,3.6415,3.6437,3.6477,3.6474,3.6511,3.6549,3.6531,3.6583,3.6596,3.6635,3.6645,3.6684,3.6655,3.6679,3.6685,3.6692,3.6701,3.6519,3.669,3.6689,3.6689,3.6688,3.6688,0,3.6482,3.6488,3.6528,3.656,3.6593,3.6557,3.6579,3.6609,3.6655,3.6671,3.6703,3.6753,3.6792,3.6789,3.6824,3.6856,3.6841,3.6866,3.6864,3.6865,3.6725,3.6707,3.6877,3.6877,3.6877,3.6877,3.6877,3.6877,3.658,3.6653,3.6644,3.6722,3.6728,3.6779,3.6794,3.6813,3.6825,3.6884,3.6916,3.6913,3.6921,3.6956,3.6989,3.6987,3.7002,3.7033,3.7025,3.6894,3.6876,3.6858,3.6841,3.7036,3.7036,3.7162,3.7163,3.7164]}]]